Year,Month,Day,Hour,Minute,Value (Times are PST for temperature in C)
2008,09,03,08,17,12.40
2008,09,03,08,18,12.40
2008,09,03,08,19,12.40
2008,09,03,08,20,12.50
2008,09,03,08,21,12.50
2008,09,03,08,22,12.50
2008,09,03,08,23,12.60
2008,09,03,08,24,12.60
2008,09,03,08,25,12.70
2008,09,03,08,26,12.70
2008,09,03,08,27,12.70
2008,09,03,08,28,12.80
2008,09,03,08,29,12.80
2008,09,03,08,30,12.80
2008,09,03,08,31,12.80
2008,09,03,08,32,12.90
2008,09,03,08,33,12.90
2008,09,03,08,34,13.00
2008,09,03,08,35,13.00
2008,09,03,08,36,13.00
2008,09,03,08,37,13.10
2008,09,03,08,38,13.10
2008,09,03,08,39,13.20
2008,09,03,08,40,13.20
2008,09,03,08,41,13.20
2008,09,03,08,42,13.30
2008,09,03,08,43,13.30
2008,09,03,08,44,13.30
2008,09,03,08,45,13.40
2008,09,03,08,46,13.40
2008,09,03,08,47,13.50
2008,09,03,08,48,13.50
2008,09,03,08,49,13.50
2008,09,03,08,50,13.50
2008,09,03,08,51,13.50
2008,09,03,08,52,13.60
2008,09,03,08,53,13.60
2008,09,03,08,54,13.60
2008,09,03,08,55,13.60
2008,09,03,08,56,13.70
2008,09,03,08,57,13.70
2008,09,03,08,58,13.70
2008,09,03,08,59,13.70
2008,09,03,09,00,13.70
2008,09,03,09,01,13.70
2008,09,03,09,02,13.70
2008,09,03,09,03,13.70
2008,09,03,09,04,13.70
2008,09,03,09,05,13.70
2008,09,03,09,06,13.70
2008,09,03,09,07,13.70
2008,09,03,09,08,13.70
2008,09,03,09,09,13.80
2008,09,03,09,10,13.80
2008,09,03,09,11,13.80
2008,09,03,09,12,13.80
2008,09,03,09,13,13.80
2008,09,03,09,14,13.80
2008,09,03,09,15,13.80
2008,09,03,09,16,13.80
2008,09,03,09,17,13.90
2008,09,03,09,18,13.90
2008,09,03,09,19,13.90
2008,09,03,09,20,13.90
2008,09,03,09,21,14.00
2008,09,03,09,22,14.00
2008,09,03,09,23,14.00
2008,09,03,09,24,14.00
2008,09,03,09,25,14.00
2008,09,03,09,26,14.10
2008,09,03,09,27,14.10
2008,09,03,09,28,14.10
2008,09,03,09,29,14.20
2008,09,03,09,30,14.20
2008,09,03,09,31,14.20
2008,09,03,09,32,14.20
2008,09,03,09,33,14.20
2008,09,03,09,34,14.20
2008,09,03,09,35,14.20
2008,09,03,09,36,14.30
2008,09,03,09,37,14.30
2008,09,03,09,38,14.30
2008,09,03,09,39,14.30
2008,09,03,09,40,14.30
2008,09,03,09,41,14.30
2008,09,03,09,42,14.30
2008,09,03,09,43,14.30
2008,09,03,09,44,14.30
2008,09,03,09,45,14.30
2008,09,03,09,46,14.30
2008,09,03,09,47,14.30
2008,09,03,09,48,14.20
2008,09,03,09,49,14.20
2008,09,03,09,50,14.20
2008,09,03,09,51,14.20
2008,09,03,09,52,14.20
2008,09,03,09,53,14.20
2008,09,03,09,54,14.20
2008,09,03,09,55,14.20
2008,09,03,09,56,14.30
2008,09,03,09,57,14.30
2008,09,03,09,58,14.20
2008,09,03,09,59,14.30
2008,09,03,10,00,14.40
2008,09,03,10,01,14.50
2008,09,03,10,02,14.50
2008,09,03,10,03,14.60
2008,09,03,10,04,14.60
2008,09,03,10,05,14.60
2008,09,03,10,06,14.60
2008,09,03,10,07,14.70
2008,09,03,10,08,14.80
2008,09,03,10,09,14.80
2008,09,03,10,10,14.80
2008,09,03,10,11,14.80
2008,09,03,10,12,14.80
2008,09,03,10,13,14.80
2008,09,03,10,14,14.80
2008,09,03,10,15,14.70
2008,09,03,10,16,14.70
2008,09,03,10,17,14.80
2008,09,03,10,18,14.80
2008,09,03,10,19,14.80
2008,09,03,10,20,14.90
2008,09,03,10,21,14.90
2008,09,03,10,22,14.90
2008,09,03,10,23,14.90
2008,09,03,10,24,14.90
2008,09,03,10,25,15.00
2008,09,03,10,26,15.10
2008,09,03,10,27,15.10
2008,09,03,10,28,15.20
2008,09,03,10,29,15.20
2008,09,03,10,30,15.20
2008,09,03,10,31,15.10
2008,09,03,10,32,15.10
2008,09,03,10,33,15.20
2008,09,03,10,34,15.20
2008,09,03,10,35,15.30
2008,09,03,10,36,15.30
2008,09,03,10,37,15.30
2008,09,03,10,38,15.30
2008,09,03,10,39,15.30
2008,09,03,10,40,15.30
2008,09,03,10,41,15.20
2008,09,03,10,42,15.20
2008,09,03,10,43,15.10
2008,09,03,10,44,15.10
2008,09,03,10,45,15.00
2008,09,03,10,46,14.90
2008,09,03,10,47,14.90
2008,09,03,10,48,15.00
2008,09,03,10,49,15.00
2008,09,03,10,50,15.10
2008,09,03,10,51,15.20
2008,09,03,10,52,15.30
2008,09,03,10,53,15.50
2008,09,03,10,54,15.50
2008,09,03,10,55,15.60
2008,09,03,10,56,15.60
2008,09,03,10,57,15.50
2008,09,03,10,58,15.50
2008,09,03,10,59,15.60
2008,09,03,11,00,15.50
2008,09,03,11,01,15.50
2008,09,03,11,02,15.40
2008,09,03,11,03,15.30
2008,09,03,11,04,15.30
2008,09,03,11,05,15.30
2008,09,03,11,06,15.40
2008,09,03,11,07,15.40
2008,09,03,11,08,15.40
2008,09,03,11,09,15.40
2008,09,03,11,10,15.50
2008,09,03,11,11,15.50
2008,09,03,11,12,15.50
2008,09,03,11,13,15.60
2008,09,03,11,14,15.70
2008,09,03,11,15,15.80
2008,09,03,11,16,15.80
2008,09,03,11,17,15.90
2008,09,03,11,18,15.90
2008,09,03,11,19,16.10
2008,09,03,11,20,16.10
2008,09,03,11,21,16.10
2008,09,03,11,22,16.20
2008,09,03,11,23,16.20
2008,09,03,11,24,16.30
2008,09,03,11,25,16.30
2008,09,03,11,26,16.40
2008,09,03,11,27,16.40
2008,09,03,11,28,16.40
2008,09,03,11,29,16.40
2008,09,03,11,30,16.40
2008,09,03,11,31,16.40
2008,09,03,11,32,16.40
2008,09,03,11,33,16.40
2008,09,03,11,34,16.30
2008,09,03,11,35,16.30
2008,09,03,11,36,16.30
2008,09,03,11,37,16.40
2008,09,03,11,38,16.40
2008,09,03,11,39,16.40
2008,09,03,11,40,16.40
2008,09,03,11,41,16.40
2008,09,03,11,42,16.40
2008,09,03,11,43,16.50
2008,09,03,11,44,16.60
2008,09,03,11,45,16.70
2008,09,03,11,46,16.70
2008,09,03,11,47,16.70
2008,09,03,11,48,16.70
2008,09,03,11,49,16.70
2008,09,03,11,50,16.70
2008,09,03,11,51,16.70
2008,09,03,11,52,16.80
2008,09,03,11,53,16.80
2008,09,03,11,54,16.70
2008,09,03,11,55,16.70
2008,09,03,11,56,16.70
2008,09,03,11,57,16.70
2008,09,03,11,58,16.70
2008,09,03,11,59,16.70
2008,09,03,12,00,16.70
2008,09,03,12,01,16.70
2008,09,03,12,02,16.60
2008,09,03,12,03,16.50
2008,09,03,12,04,16.30
2008,09,03,12,05,16.20
2008,09,03,12,06,16.20
2008,09,03,12,07,16.20
2008,09,03,12,08,16.30
2008,09,03,12,09,16.40
2008,09,03,12,10,16.40
2008,09,03,12,11,16.60
2008,09,03,12,12,16.60
2008,09,03,12,13,16.70
2008,09,03,12,14,16.70
2008,09,03,12,15,16.70
2008,09,03,12,16,16.70
2008,09,03,12,17,16.70
2008,09,03,12,18,16.70
2008,09,03,12,19,16.80
2008,09,03,12,20,16.90
2008,09,03,12,21,16.90
2008,09,03,12,22,17.00
2008,09,03,12,23,17.00
2008,09,03,12,24,17.10
2008,09,03,12,25,17.10
2008,09,03,12,26,17.20
2008,09,03,12,27,17.30
2008,09,03,12,28,17.30
2008,09,03,12,29,17.10
2008,09,03,12,30,17.00
2008,09,03,12,31,16.90
2008,09,03,12,32,16.80
2008,09,03,12,33,16.80
2008,09,03,12,34,16.80
2008,09,03,12,35,16.70
2008,09,03,12,36,16.70
2008,09,03,12,37,16.80
2008,09,03,12,38,16.80
2008,09,03,12,39,16.70
2008,09,03,12,40,16.70
2008,09,03,12,41,16.80
2008,09,03,12,42,16.90
2008,09,03,12,43,16.90
2008,09,03,12,44,16.90
2008,09,03,12,45,17.00
2008,09,03,12,46,17.00
2008,09,03,12,47,17.10
2008,09,03,12,48,17.10
2008,09,03,12,49,17.10
2008,09,03,12,50,17.20
2008,09,03,12,51,17.20
2008,09,03,12,52,17.20
2008,09,03,12,53,17.20
2008,09,03,12,54,17.20
2008,09,03,12,55,17.20
2008,09,03,12,56,17.20
2008,09,03,12,57,17.20
2008,09,03,12,58,17.20
2008,09,03,12,59,17.30
2008,09,03,13,00,17.30
2008,09,03,13,01,17.40
2008,09,03,13,02,17.50
2008,09,03,13,03,17.60
2008,09,03,13,04,17.60
2008,09,03,13,05,17.70
2008,09,03,13,06,17.60
2008,09,03,13,07,17.40
2008,09,03,13,08,17.30
2008,09,03,13,09,17.10
2008,09,03,13,10,17.00
2008,09,03,13,11,16.90
2008,09,03,13,12,16.80
2008,09,03,13,13,16.90
2008,09,03,13,14,16.90
2008,09,03,13,15,17.00
2008,09,03,13,16,17.00
2008,09,03,13,17,17.00
2008,09,03,13,18,17.00
2008,09,03,13,19,16.90
2008,09,03,13,20,16.90
2008,09,03,13,21,16.90
2008,09,03,13,22,16.90
2008,09,03,13,23,16.80
2008,09,03,13,24,16.80
2008,09,03,13,25,16.90
2008,09,03,13,26,16.90
2008,09,03,13,27,16.90
2008,09,03,13,28,16.90
2008,09,03,13,29,16.80
2008,09,03,13,30,16.70
2008,09,03,13,31,16.70
2008,09,03,13,32,16.80
2008,09,03,13,33,16.80
2008,09,03,13,34,16.90
2008,09,03,13,35,16.90
2008,09,03,13,36,16.80
2008,09,03,13,37,16.80
2008,09,03,13,38,16.70
2008,09,03,13,39,16.70
2008,09,03,13,40,16.80
2008,09,03,13,41,16.70
2008,09,03,13,42,16.80
2008,09,03,13,43,16.80
2008,09,03,13,44,16.80
2008,09,03,13,45,16.90
2008,09,03,13,46,16.80
2008,09,03,13,47,16.80
2008,09,03,13,48,16.90
2008,09,03,13,49,16.90
2008,09,03,13,50,16.90
2008,09,03,13,51,17.00
2008,09,03,13,52,17.00
2008,09,03,13,53,17.10
2008,09,03,13,54,17.10
2008,09,03,13,55,17.10
2008,09,03,13,56,17.10
2008,09,03,13,57,17.30
2008,09,03,13,58,17.30
2008,09,03,13,59,17.30
2008,09,03,14,00,17.40
2008,09,03,14,01,17.50
2008,09,03,14,02,17.50
2008,09,03,14,03,17.60
2008,09,03,14,04,17.60
2008,09,03,14,05,17.50
2008,09,03,14,06,17.30
2008,09,03,14,07,17.20
2008,09,03,14,08,17.20
2008,09,03,14,09,17.10
2008,09,03,14,10,17.00
2008,09,03,14,11,16.90
2008,09,03,14,12,16.90
2008,09,03,14,13,16.90
2008,09,03,14,14,16.80
2008,09,03,14,15,16.90
2008,09,03,14,16,16.90
2008,09,03,14,17,16.90
2008,09,03,14,18,17.10
2008,09,03,14,19,17.20
2008,09,03,14,20,17.30
2008,09,03,14,21,17.30
2008,09,03,14,22,17.30
2008,09,03,14,23,17.30
2008,09,03,14,24,17.30
2008,09,03,14,25,17.30
2008,09,03,14,26,17.30
2008,09,03,14,27,17.30
2008,09,03,14,28,17.30
2008,09,03,14,29,17.20
2008,09,03,14,30,17.20
2008,09,03,14,31,17.30
2008,09,03,14,32,17.20
2008,09,03,14,33,17.00
2008,09,03,14,34,16.90
2008,09,03,14,35,16.80
2008,09,03,14,36,16.80
2008,09,03,14,37,17.00
2008,09,03,14,38,17.10
2008,09,03,14,39,17.20
2008,09,03,14,40,17.10
2008,09,03,14,41,17.10
2008,09,03,14,42,17.20
2008,09,03,14,43,17.20
2008,09,03,14,44,17.20
2008,09,03,14,45,17.30
2008,09,03,14,46,17.30
2008,09,03,14,47,17.20
2008,09,03,14,48,17.10
2008,09,03,14,49,16.90
2008,09,03,14,50,16.80
2008,09,03,14,51,16.70
2008,09,03,14,52,16.70
2008,09,03,14,53,16.70
2008,09,03,14,54,16.70
2008,09,03,14,55,16.70
2008,09,03,14,56,16.80
2008,09,03,14,57,16.80
2008,09,03,14,58,16.80
2008,09,03,14,59,16.70
2008,09,03,15,00,16.70
2008,09,03,15,01,16.70
2008,09,03,15,02,16.70
2008,09,03,15,03,16.70
2008,09,03,15,04,16.70
2008,09,03,15,05,16.70
2008,09,03,15,06,16.70
2008,09,03,15,07,16.70
2008,09,03,15,08,16.60
2008,09,03,15,09,16.60
2008,09,03,15,10,16.60
2008,09,03,15,11,16.50
2008,09,03,15,12,16.50
2008,09,03,15,13,16.40
2008,09,03,15,14,16.40
2008,09,03,15,15,16.50
2008,09,03,15,16,16.60
2008,09,03,15,17,16.70
2008,09,03,15,18,16.70
2008,09,03,15,19,16.60
2008,09,03,15,20,16.70
2008,09,03,15,21,16.70
2008,09,03,15,22,16.70
2008,09,03,15,23,16.80
2008,09,03,15,24,16.90
2008,09,03,15,25,16.90
2008,09,03,15,26,16.90
2008,09,03,15,27,16.90
2008,09,03,15,28,17.00
2008,09,03,15,29,17.00
2008,09,03,15,30,17.10
2008,09,03,15,31,17.10
2008,09,03,15,32,17.20
2008,09,03,15,33,17.30
2008,09,03,15,34,17.20
2008,09,03,15,35,17.20
2008,09,03,15,36,17.20
2008,09,03,15,37,17.20
2008,09,03,15,38,17.30
2008,09,03,15,39,17.30
2008,09,03,15,40,17.40
2008,09,03,15,41,17.50
2008,09,03,15,42,17.60
2008,09,03,15,43,17.70
2008,09,03,15,44,17.70
2008,09,03,15,45,17.80
2008,09,03,15,46,17.80
2008,09,03,15,47,17.80
2008,09,03,15,48,17.90
2008,09,03,15,49,17.90
2008,09,03,15,50,17.90
2008,09,03,15,51,17.90
2008,09,03,15,52,17.90
2008,09,03,15,53,17.90
2008,09,03,15,54,17.90
2008,09,03,15,55,17.90
2008,09,03,15,56,17.80
2008,09,03,15,57,17.70
2008,09,03,15,58,17.60
2008,09,03,15,59,17.50
2008,09,03,16,00,17.50
2008,09,03,16,01,17.40
2008,09,03,16,02,17.40
2008,09,03,16,03,17.40
2008,09,03,16,04,17.40
2008,09,03,16,05,17.60
2008,09,03,16,06,17.70
2008,09,03,16,07,17.70
2008,09,03,16,08,17.70
2008,09,03,16,09,17.70
2008,09,03,16,10,17.60
2008,09,03,16,11,17.70
2008,09,03,16,12,17.70
2008,09,03,16,13,17.80
2008,09,03,16,14,17.80
2008,09,03,16,15,17.80
2008,09,03,16,16,17.80
2008,09,03,16,17,17.80
2008,09,03,16,18,17.80
2008,09,03,16,19,17.80
2008,09,03,16,20,17.90
2008,09,03,16,21,17.90
2008,09,03,16,22,17.90
2008,09,03,16,23,17.90
2008,09,03,16,24,17.90
2008,09,03,16,25,17.90
2008,09,03,16,26,17.80
2008,09,03,16,27,17.80
2008,09,03,16,28,17.80
2008,09,03,16,29,17.80
2008,09,03,16,30,17.90
2008,09,03,16,31,17.90
2008,09,03,16,32,17.90
2008,09,03,16,33,17.90
2008,09,03,16,34,17.90
2008,09,03,16,35,18.00
2008,09,03,16,36,18.10
2008,09,03,16,37,18.20
2008,09,03,16,38,18.20
2008,09,03,16,39,18.20
2008,09,03,16,40,18.20
2008,09,03,16,41,18.30
2008,09,03,16,42,18.40
2008,09,03,16,43,18.40
2008,09,03,16,44,18.40
2008,09,03,16,45,18.30
2008,09,03,16,46,18.20
2008,09,03,16,47,18.20
2008,09,03,16,48,18.20
2008,09,03,16,49,18.10
2008,09,03,16,50,18.00
2008,09,03,16,51,17.90
2008,09,03,16,52,17.90
2008,09,03,16,53,17.90
2008,09,03,16,54,17.90
2008,09,03,16,55,18.00
2008,09,03,16,56,18.10
2008,09,03,16,57,18.10
2008,09,03,16,58,18.10
2008,09,03,16,59,18.20
2008,09,03,17,00,18.30
2008,09,03,17,01,18.50
2008,09,03,17,02,18.70
2008,09,03,17,03,19.00
2008,09,03,17,04,19.20
2008,09,03,17,05,19.40
2008,09,03,17,06,19.40
2008,09,03,17,07,19.40
2008,09,03,17,08,19.50
2008,09,03,17,09,19.60
2008,09,03,17,10,19.80
2008,09,03,17,11,20.00
2008,09,03,17,12,20.10
2008,09,03,17,13,20.20
2008,09,03,17,14,20.30
2008,09,03,17,15,20.40
2008,09,03,17,16,20.50
2008,09,03,17,17,20.50
2008,09,03,17,18,20.60
2008,09,03,17,19,20.60
2008,09,03,17,20,20.60
2008,09,03,17,21,20.60
2008,09,03,17,22,20.70
2008,09,03,17,23,20.70
2008,09,03,17,24,20.70
2008,09,03,17,25,20.80
2008,09,03,17,26,20.90
2008,09,03,17,27,21.00
2008,09,03,17,28,21.00
2008,09,03,17,29,21.10
2008,09,03,17,30,21.30
2008,09,03,17,31,21.30
2008,09,03,17,32,21.30
2008,09,03,17,33,21.30
2008,09,03,17,34,21.30
2008,09,03,17,35,21.30
2008,09,03,17,36,21.20
2008,09,03,17,37,21.20
2008,09,03,17,38,21.10
2008,09,03,17,39,21.00
2008,09,03,17,40,21.00
2008,09,03,17,41,21.00
2008,09,03,17,42,21.00
2008,09,03,17,43,21.00
2008,09,03,17,44,21.00
2008,09,03,17,45,21.00
2008,09,03,17,46,20.90
2008,09,03,17,47,20.80
2008,09,03,17,48,20.70
2008,09,03,17,49,20.70
2008,09,03,17,50,20.70
2008,09,03,17,51,20.60
2008,09,03,17,52,20.50
2008,09,03,17,53,20.50
2008,09,03,17,54,20.50
2008,09,03,17,55,20.40
2008,09,03,17,56,20.30
2008,09,03,17,57,20.20
2008,09,03,17,58,20.20
2008,09,03,17,59,20.20
2008,09,03,18,00,20.20
2008,09,03,18,01,20.20
2008,09,03,18,02,20.20
2008,09,03,18,03,20.20
2008,09,03,18,04,20.20
2008,09,03,18,05,20.20
2008,09,03,18,06,20.10
2008,09,03,18,07,20.10
2008,09,03,18,08,20.10
2008,09,03,18,09,19.90
2008,09,03,18,10,19.90
2008,09,03,18,11,19.80
2008,09,03,18,12,19.70
2008,09,03,18,13,19.70
2008,09,03,18,14,19.60
2008,09,03,18,15,19.60
2008,09,03,18,16,19.60
2008,09,03,18,17,19.60
2008,09,03,18,18,19.60
2008,09,03,18,19,19.60
2008,09,03,18,20,19.50
2008,09,03,18,21,19.40
2008,09,03,18,22,19.30
2008,09,03,18,23,19.20
2008,09,03,18,24,19.10
2008,09,03,18,25,19.00
2008,09,03,18,26,18.90
2008,09,03,18,27,18.90
2008,09,03,18,28,18.80
2008,09,03,18,29,18.70
2008,09,03,18,30,18.70
2008,09,03,18,31,18.70
2008,09,03,18,32,18.60
2008,09,03,18,33,18.50
2008,09,03,18,34,18.40
2008,09,03,18,35,18.30
2008,09,03,18,36,18.30
2008,09,03,18,37,18.20
2008,09,03,18,38,18.10
2008,09,03,18,39,18.10
2008,09,03,18,40,18.00
2008,09,03,18,41,18.00
2008,09,03,18,42,17.90
2008,09,03,18,43,17.90
2008,09,03,18,44,17.80
2008,09,03,18,45,17.80
2008,09,03,18,46,17.80
2008,09,03,18,47,17.90
2008,09,03,18,48,17.90
2008,09,03,18,49,17.90
2008,09,03,18,50,17.90
2008,09,03,18,51,17.90
2008,09,03,18,52,18.00
2008,09,03,18,53,18.10
2008,09,03,18,54,18.10
2008,09,03,18,55,18.20
2008,09,03,18,56,18.20
2008,09,03,18,57,18.20
2008,09,03,18,58,18.20
2008,09,03,18,59,18.20
2008,09,03,19,00,18.20
2008,09,03,19,01,18.20
2008,09,03,19,02,18.20
2008,09,03,19,03,18.20
2008,09,03,19,04,18.20
2008,09,03,19,05,18.20
2008,09,03,19,06,18.20
2008,09,03,19,07,18.20
2008,09,03,19,08,18.20
2008,09,03,19,09,18.10
2008,09,03,19,10,18.00
2008,09,03,19,11,17.90
2008,09,03,19,12,17.80
2008,09,03,19,13,17.60
2008,09,03,19,14,17.60
2008,09,03,19,15,17.50
2008,09,03,19,16,17.50
2008,09,03,19,17,17.50
2008,09,03,19,18,17.50
2008,09,03,19,19,17.50
2008,09,03,19,20,17.60
2008,09,03,19,21,17.60
2008,09,03,19,22,17.60
2008,09,03,19,23,17.50
2008,09,03,19,24,17.50
2008,09,03,19,25,17.50
2008,09,03,19,26,17.40
2008,09,03,19,27,17.40
2008,09,03,19,28,17.30
2008,09,03,19,29,17.20
2008,09,03,19,30,17.10
2008,09,03,19,31,17.10
2008,09,03,19,32,17.10
2008,09,03,19,33,17.10
2008,09,03,19,34,17.10
2008,09,03,19,35,17.00
2008,09,03,19,36,17.00
2008,09,03,19,37,16.90
2008,09,03,19,38,16.80
2008,09,03,19,39,16.70
2008,09,03,19,40,16.70
2008,09,03,19,41,16.70
2008,09,03,19,42,16.60
2008,09,03,19,43,16.60
2008,09,03,19,44,16.60
2008,09,03,19,45,16.60
2008,09,03,19,46,16.60
2008,09,03,19,47,16.40
2008,09,03,19,48,16.40
2008,09,03,19,49,16.40
2008,09,03,19,50,16.40
2008,09,03,19,51,16.40
2008,09,03,19,52,16.30
2008,09,03,19,53,16.20
2008,09,03,19,54,16.20
2008,09,03,19,55,16.20
2008,09,03,19,56,16.10
2008,09,03,19,57,16.10
2008,09,03,19,58,16.10
2008,09,03,19,59,16.10
2008,09,03,20,00,16.10
2008,09,03,20,01,16.10
2008,09,03,20,02,16.10
2008,09,03,20,03,16.00
2008,09,03,20,04,15.90
2008,09,03,20,05,15.90
2008,09,03,20,06,15.90
2008,09,03,20,07,15.80
2008,09,03,20,08,15.80
2008,09,03,20,09,15.80
2008,09,03,20,10,15.80
2008,09,03,20,11,15.80
2008,09,03,20,12,15.70
2008,09,03,20,13,15.70
2008,09,03,20,14,15.70
2008,09,03,20,15,15.70
2008,09,03,20,16,15.70
2008,09,03,20,17,15.80
2008,09,03,20,18,15.80
2008,09,03,20,19,15.80
2008,09,03,20,20,15.80
2008,09,03,20,21,15.80
2008,09,03,20,22,15.80
2008,09,03,20,23,15.80
2008,09,03,20,24,15.80
2008,09,03,20,25,15.80
2008,09,03,20,26,15.70
2008,09,03,20,27,15.70
2008,09,03,20,28,15.70
2008,09,03,20,29,15.70
2008,09,03,20,30,15.70
2008,09,03,20,31,15.80
2008,09,03,20,32,15.70
2008,09,03,20,33,15.70
2008,09,03,20,34,15.70
2008,09,03,20,35,15.60
2008,09,03,20,36,15.60
2008,09,03,20,37,15.60
2008,09,03,20,38,15.50
2008,09,03,20,39,15.50
2008,09,03,20,40,15.50
2008,09,03,20,41,15.50
2008,09,03,20,42,15.50
2008,09,03,20,43,15.40
2008,09,03,20,44,15.40
2008,09,03,20,45,15.40
2008,09,03,20,46,15.40
2008,09,03,20,47,15.40
2008,09,03,20,48,15.30
2008,09,03,20,49,15.30
2008,09,03,20,50,15.30
2008,09,03,20,51,15.30
2008,09,03,20,52,15.30
2008,09,03,20,53,15.20
2008,09,03,20,54,15.20
2008,09,03,20,55,15.10
2008,09,03,20,56,15.10
2008,09,03,20,57,15.00
2008,09,03,20,58,15.00
2008,09,03,20,59,15.00
2008,09,03,21,00,14.90
2008,09,03,21,01,14.90
2008,09,03,21,02,14.90
2008,09,03,21,03,14.90
2008,09,03,21,04,14.90
2008,09,03,21,05,14.80
2008,09,03,21,06,14.80
2008,09,03,21,07,14.80
2008,09,03,21,08,14.90
2008,09,03,21,09,14.90
2008,09,03,21,10,14.90
2008,09,03,21,11,14.90
2008,09,03,21,12,14.90
2008,09,03,21,13,14.90
2008,09,03,21,14,14.90
2008,09,03,21,15,14.90
2008,09,03,21,16,14.90
2008,09,03,21,17,14.80
2008,09,03,21,18,14.80
2008,09,03,21,19,14.80
2008,09,03,21,20,14.80
2008,09,03,21,21,14.80
2008,09,03,21,22,14.80
2008,09,03,21,23,14.80
2008,09,03,21,24,14.70
2008,09,03,21,25,14.70
2008,09,03,21,26,14.70
2008,09,03,21,27,14.70
2008,09,03,21,28,14.60
2008,09,03,21,29,14.60
2008,09,03,21,30,14.60
2008,09,03,21,31,14.60
2008,09,03,21,32,14.60
2008,09,03,21,33,14.60
2008,09,03,21,34,14.60
2008,09,03,21,35,14.60
2008,09,03,21,36,14.50
2008,09,03,21,37,14.50
2008,09,03,21,38,14.50
2008,09,03,21,39,14.60
2008,09,03,21,40,14.60
2008,09,03,21,41,14.60
2008,09,03,21,42,14.70
2008,09,03,21,43,14.70
2008,09,03,21,44,14.70
2008,09,03,21,45,14.60
2008,09,03,21,46,14.60
2008,09,03,21,47,14.60
2008,09,03,21,48,14.60
2008,09,03,21,49,14.50
2008,09,03,21,50,14.50
2008,09,03,21,51,14.40
2008,09,03,21,52,14.40
2008,09,03,21,53,14.40
2008,09,03,21,54,14.40
2008,09,03,21,55,14.50
2008,09,03,21,56,14.50
2008,09,03,21,57,14.50
2008,09,03,21,58,14.50
2008,09,03,21,59,14.50
2008,09,03,22,00,14.50
2008,09,03,22,01,14.50
2008,09,03,22,02,14.40
2008,09,03,22,03,14.30
2008,09,03,22,04,14.20
2008,09,03,22,05,14.20
2008,09,03,22,06,14.20
2008,09,03,22,07,14.10
2008,09,03,22,08,14.10
2008,09,03,22,09,14.00
2008,09,03,22,10,13.90
2008,09,03,22,11,13.90
2008,09,03,22,12,13.80
2008,09,03,22,13,13.70
2008,09,03,22,14,13.70
2008,09,03,22,15,13.70
2008,09,03,22,16,13.60
2008,09,03,22,17,13.60
2008,09,03,22,18,13.50
2008,09,03,22,19,13.50
2008,09,03,22,20,13.50
2008,09,03,22,21,13.50
2008,09,03,22,22,13.50
2008,09,03,22,23,13.50
2008,09,03,22,24,13.60
2008,09,03,22,25,13.60
2008,09,03,22,26,13.60
2008,09,03,22,27,13.60
2008,09,03,22,28,13.60
2008,09,03,22,29,13.60
2008,09,03,22,30,13.60
2008,09,03,22,31,13.60
2008,09,03,22,32,13.60
2008,09,03,22,33,13.60
2008,09,03,22,34,13.60
2008,09,03,22,35,13.60
2008,09,03,22,36,13.50
2008,09,03,22,37,13.50
2008,09,03,22,38,13.50
2008,09,03,22,39,13.50
2008,09,03,22,40,13.50
2008,09,03,22,41,13.50
2008,09,03,22,42,13.50
2008,09,03,22,43,13.50
2008,09,03,22,44,13.50
2008,09,03,22,45,13.50
2008,09,03,22,46,13.50
2008,09,03,22,47,13.50
2008,09,03,22,48,13.50
2008,09,03,22,49,13.60
2008,09,03,22,50,13.60
2008,09,03,22,51,13.60
2008,09,03,22,52,13.60
2008,09,03,22,53,13.60
2008,09,03,22,54,13.60
2008,09,03,22,55,13.60
2008,09,03,22,56,13.60
2008,09,03,22,57,13.60
2008,09,03,22,58,13.50
2008,09,03,22,59,13.50
2008,09,03,23,00,13.40
2008,09,03,23,01,13.40
2008,09,03,23,02,13.30
2008,09,03,23,03,13.30
2008,09,03,23,04,13.30
2008,09,03,23,05,13.20
2008,09,03,23,06,13.20
2008,09,03,23,07,13.20
2008,09,03,23,08,13.20
2008,09,03,23,09,13.20
2008,09,03,23,10,13.10
2008,09,03,23,11,13.10
2008,09,03,23,12,13.10
2008,09,03,23,13,13.10
2008,09,03,23,14,13.10
2008,09,03,23,15,13.10
2008,09,03,23,16,13.10
2008,09,03,23,17,13.00
2008,09,03,23,18,13.00
2008,09,03,23,19,13.00
2008,09,03,23,20,13.00
2008,09,03,23,21,13.00
2008,09,03,23,22,13.00
2008,09,03,23,23,13.00
2008,09,03,23,24,13.00
2008,09,03,23,25,13.10
2008,09,03,23,26,13.10
2008,09,03,23,27,13.10
2008,09,03,23,28,13.10
2008,09,03,23,29,13.20
2008,09,03,23,30,13.20
2008,09,03,23,31,13.20
2008,09,03,23,32,13.20
2008,09,03,23,33,13.30
2008,09,03,23,34,13.30
2008,09,03,23,35,13.30
2008,09,03,23,36,13.30
2008,09,03,23,37,13.40
2008,09,03,23,38,13.50
2008,09,03,23,39,13.60
2008,09,03,23,40,13.70
2008,09,03,23,41,13.70
2008,09,03,23,42,13.70
2008,09,03,23,43,13.70
2008,09,03,23,44,13.70
2008,09,03,23,45,13.80
2008,09,03,23,46,13.80
2008,09,03,23,47,13.80
2008,09,03,23,48,13.80
2008,09,03,23,49,13.80
2008,09,03,23,50,13.80
2008,09,03,23,51,13.80
2008,09,03,23,52,13.80
2008,09,03,23,53,13.80
2008,09,03,23,54,13.90
2008,09,03,23,55,13.90
2008,09,03,23,56,13.90
2008,09,03,23,57,13.90
2008,09,03,23,58,13.90
2008,09,03,23,59,13.90
